Weather History for Quincy, IL

Change the Weather History Date:

Sunday, November 25, 2012

  Actual Average Record
Temperature  
Mean Temperature 38 °F 38 °F  
Max Temperature 47 °F 46 °F 68 °F (1915)
Min Temperature 28 °F 29 °F -1 °F (1950)
Degree Days  
Heating Degree Days 27 27  
Month to date heating degree days 529 533  
Since 1 July heating degree days 1005 957  
Cooling Degree Days 0 0  
Month to date cooling degree days 2 0  
Year to date cooling degree days 1575 1093  
Moisture  
Dew Point 26 °F    
Average Humidity 64    
Maximum Humidity 78    
Minimum Humidity 49    
Precipitation  
Precipitation 0.00 in 0.09 in 0.69 in (1992)
Month to date precipitation 1.04 2.53  
Year to date precipitation 24.26 34.59  
Sea Level Pressure  
Sea Level Pressure 29.97 in    
Wind  
Wind Speed 8 mph (WNW)    
Max Wind Speed 15 mph    
Max Gust Speed 20 mph    
Visibility 10 miles    
Events      
T = Trace of Precipitation, MM = Missing Value Source: NWS Daily Summary

Daily Weather History Graph

Daily Weather History Graph

Search for Another Location

Airport:

Trip Planner

Search our weather history database for the weather conditions in past years. The results will help you decide how hot, cold, wet, or windy it might be!

Date:

Astronomy

Nov. 25, 2012 Rise Set
Actual Time 7:01 AM CST 4:42 PM CST
Civil Twilight 6:31 AM CST 5:11 PM CST
Nautical Twilight 5:58 AM CST 5:45 PM CST
Astronomical Twilight 5:26 AM CST 6:17 PM CST
Moon 2:59 PM CST (11/25) 4:15 AM CST (11/25)
Length of Visible Light 10h 39m
Length of Day
9h 40m
Waxing Gibbous, 93% of the Moon is Illuminated
Nov 25
Waxing Gibbous
Nov 28
Full
Dec 6
Last Quarter
Dec 13
New
Dec 19
First Quarter

Hourly Weather History & Observations

Time (CST) Temp. Windchill Dew Point Humidity Pressure Visibility Wind Dir Wind Speed Gust Speed Precip Events Conditions
12:54 AM 35.1 °F 25.9 °F 19.9 °F 54% 29.93 in 10.0 mi SSW 13.8 mph - N/A   Clear
1:54 AM 37.0 °F 28.5 °F 21.0 °F 52% 29.91 in 10.0 mi SSW 13.8 mph - N/A   Clear
2:54 AM 37.9 °F 30.0 °F 21.9 °F 53% 29.91 in 10.0 mi SSW 12.7 mph - N/A   Clear
3:54 AM 39.0 °F 31.8 °F 23.0 °F 53% 29.90 in 10.0 mi SW 11.5 mph - N/A   Clear
4:54 AM 39.0 °F 33.4 °F 24.1 °F 55% 29.90 in 10.0 mi SW 8.1 mph - N/A   Clear
5:54 AM 39.0 °F 33.4 °F 25.0 °F 57% 29.90 in 10.0 mi SW 8.1 mph - N/A   Clear
6:54 AM 39.0 °F 33.4 °F 25.0 °F 57% 29.92 in 10.0 mi WSW 8.1 mph - N/A   Clear
7:54 AM 39.9 °F 35.1 °F 26.1 °F 58% 29.93 in 10.0 mi WSW 6.9 mph - N/A   Clear
8:54 AM 43.0 °F 39.5 °F 28.0 °F 56% 29.94 in 10.0 mi West 5.8 mph - N/A   Scattered Clouds
9:54 AM 44.1 °F 39.5 °F 27.0 °F 51% 29.94 in 10.0 mi WNW 8.1 mph - N/A   Clear
10:54 AM 44.1 °F 40.1 °F 28.0 °F 53% 29.96 in 10.0 mi NW 6.9 mph - N/A   Clear
11:54 AM 46.0 °F 41.4 °F 28.0 °F 50% 29.95 in 10.0 mi NW 9.2 mph - N/A   Clear
12:54 PM 46.9 °F - 28.0 °F 48% 29.94 in 10.0 mi NW 9.2 mph - N/A   Clear
1:54 PM 45.0 °F 40.6 °F 27.0 °F 49% 29.94 in 10.0 mi NNW 8.1 mph - N/A   Clear
2:54 PM 45.0 °F 41.8 °F 28.0 °F 52% 29.94 in 10.0 mi NNW 5.8 mph - N/A   Clear
3:54 PM 44.1 °F 42.5 °F 28.0 °F 53% 29.97 in 10.0 mi NW 3.5 mph - N/A   Clear
4:54 PM 42.1 °F 39.2 °F 28.9 °F 60% 29.99 in 10.0 mi North 4.6 mph - N/A   Partly Cloudy
5:54 PM 41.0 °F - 28.9 °F 62% 30.00 in 10.0 mi Calm Calm - N/A   Clear
6:54 PM 39.9 °F 36.7 °F 28.0 °F 63% 30.02 in 10.0 mi North 4.6 mph - N/A   Clear
7:54 PM 39.0 °F 33.4 °F 28.9 °F 67% 30.05 in 10.0 mi North 8.1 mph - N/A   Clear
8:54 PM 35.1 °F 30.1 °F 27.0 °F 72% 30.06 in 10.0 mi NNE 5.8 mph - N/A   Clear
9:54 PM 34.0 °F 28.8 °F 26.1 °F 73% 30.09 in 10.0 mi NNE 5.8 mph - N/A   Clear
10:54 PM 30.9 °F 26.2 °F 25.0 °F 79% 30.09 in 10.0 mi NNE 4.6 mph - N/A   Clear
11:54 PM 28.0 °F 20.8 °F 24.1 °F 85% 30.10 in 10.0 mi NNE 6.9 mph - N/A   Clear